This demonstration page uses our WeatherBlox Daily Observations layout. Learn more.

41.55636, -103.73856

Hourly Observations for May 8, 2018

Temp ( °F °C ) Dew Point ( °F °C ) Humidity (%) Winds ( mph kmh ) Pressure ( in mb ) Visibility ( mi km ) Precip ( " mm )
12:53 am 00:53 Clear 60 15.6 46 7.8 60 60 NE 28 44 29.83 1010 10 16.09344 0 0
1:53 am 01:53 Clear 56 13.3 47 8.3 72 72 W 13 20 29.88 1012 10 16.09344 0 0
2:53 am 02:53 Clear 53 11.7 46 7.8 77 77 NNW 7 11 29.91 1013 10 16.09344 0 0
3:53 am 03:53 Clear 49 9.4 46 7.8 90 90 NNW 3 6 29.94 1014 10 16.09344 0 0
4:53 am 04:53 Clear 49 9.4 46 7.8 90 90 NNW 6 9 29.94 1014 10 16.09344 0 0
5:53 am 05:53 Sunny 47 8.3 45 7.2 93 93 NW 7 11 29.94 1014 10 16.09344 0 0
6:53 am 06:53 Partly Cloudy 52 11.1 47 8.3 83 83 WNW 8 13 29.94 1014 10 16.09344 0 0
7:53 am 07:53 Sunny 56 13.3 49 9.4 77 77 WNW 9 15 29.97 1015 10 16.09344 0 0
8:53 am 08:53 Sunny 62 16.7 50 10 65 65 WNW 13 20 29.97 1015 10 16.09344 0 0
9:53 am 09:53 Sunny 69 20.6 49 9.4 49 49 NW 15 24 29.94 1014 10 16.09344 0 0
10:53 am 10:53 Sunny 72 22.2 45 7.2 38 38 NW 10 17 29.94 1014 10 16.09344 0 0
11:53 am 11:53 Sunny 74 23.3 45 7.2 36 36 NW 12 19 29.94 1014 10 16.09344 0 0
12:53 pm 12:53 Mostly Cloudy 73 22.8 46 7.8 38 38 NW 15 24 29.91 1013 10 16.09344 0 0
1:53 pm 13:53 Mostly Cloudy 76 24.4 45 7.2 33 33 WNW 13 20 29.91 1013 10 16.09344 0 0
2:53 pm 14:53 Mostly Cloudy 78 25.6 45 7.2 31 31 NW 23 37 29.88 1012 10 16.09344 0 0
3:53 pm 15:53 Partly Cloudy 77 25 44 6.7 31 31 NW 16 26 29.88 1012 10 16.09344 0 0
4:53 pm 16:53 Mostly Sunny 77 25 45 7.2 32 32 NNW 16 26 29.88 1012 10 16.09344 0 0
5:53 pm 17:53 Mostly Sunny 76 24.4 44 6.7 32 32 NNW 14 22 29.88 1012 10 16.09344 0 0
6:53 pm 18:53 Sunny 73 22.8 43 6.1 34 34 NNW 14 22 29.88 1012 10 16.09344 0 0
7:53 pm 19:53 Sunny 66 18.9 46 7.8 49 49 N 8 13 29.91 1013 10 16.09344 0 0
8:53 pm 20:53 Clear 60 15.6 46 7.8 60 60 NNE 9 15 29.91 1013 10 16.09344 0 0
9:53 pm 21:53 Clear 56 13.3 48 8.9 75 75 NNE 8 13 29.94 1014 10 16.09344 0 0

Powered by AerisWeather